Carbondale, IL

5:49 PM CST on February 17, 2018 (GMT -0600)
Southern Illinois

Weather History for KMDH - March, 2013

Change the Weather History Date:

Friday, March 1, 2013

  Actual Average Record
Temperature  
Mean Temperature 35 °F -  
Max Temperature 37 °F 52 °F 74 °F (1976)
Min Temperature 33 °F 27 °F 7 °F (1984)
Degree Days  
Heating Degree Days 30    
Moisture  
Dew Point 30 °F    
Average Humidity 80    
Maximum Humidity 87    
Minimum Humidity 75    
Precipitation  
Precipitation 0.08 in - - ()
Sea Level Pressure  
Sea Level Pressure 30.10 in    
Wind  
Wind Speed 8 mph (NW)    
Max Wind Speed 15 mph    
Max Gust Speed 20 mph    
Visibility 3 miles    
Events Snow    
Averages and records for this station are not official NWS values.
T = Trace of Precipitation, MM = Missing Value Source: NWS Daily Summary

Daily Weather History Graph

Daily Weather History Graph

Search for Another Location

Airport or City:

Trip Planner

Search our weather history database for the weather conditions in past years. The results will help you decide how hot, cold, wet, or windy it might be!

Date:

Astronomy

Mar. 01, 2013 Rise Set
Actual Time 6:28 AM CST 5:50 PM CST
Civil Twilight 6:01 AM CST 6:17 PM CST
Nautical Twilight 5:31 AM CST 6:47 PM CST
Astronomical Twilight 5:01 AM CST 7:18 PM CST
Moon 10:18 PM CST (3/1) 8:20 AM CST (3/1)
Length of Visible Light 12h 15m
Length of Day
11h 22m
Waning Gibbous, 83% of the Moon is Illuminated
Mar 1
Waning Gibbous
Mar 4
Last Quarter
Mar 11
New
Mar 19
First Quarter
Mar 27
Full

Hourly Weather History & Observations

Time (CST) Temp. Windchill Dew Point Humidity Pressure Visibility Wind Dir Wind Speed Gust Speed Precip Events Conditions
12:35 AM 33.8 °F 27.7 °F 30.2 °F 87% 30.07 in 1.8 mi NW 6.9 mph - 0.01 in Snow Light Snow
12:52 AM 34.0 °F 28.8 °F 30.0 °F 85% 30.08 in 2.0 mi NW 5.8 mph - 0.01 in Snow Light Snow
1:48 AM 33.8 °F 28.6 °F 30.2 °F 87% 30.07 in 1.8 mi WNW 5.8 mph - 0.00 in Snow Light Snow
1:52 AM 34.0 °F 28.8 °F 30.0 °F 85% 30.08 in 1.8 mi WNW 5.8 mph - 0.01 in Snow Light Snow
2:38 AM 33.8 °F 28.6 °F 30.2 °F 87% 30.07 in 2.0 mi NW 5.8 mph - 0.00 in Snow Light Snow
2:52 AM 34.0 °F 28.8 °F 30.0 °F 85% 30.07 in 2.0 mi NW 5.8 mph - 0.00 in Snow Light Snow
3:52 AM 34.0 °F 29.8 °F 30.0 °F 85% 30.07 in 2.5 mi WNW 4.6 mph - 0.01 in Snow Light Snow
4:47 AM 33.8 °F 28.6 °F 30.2 °F 87% 30.06 in 1.5 mi NW 5.8 mph - 0.00 in Snow Light Snow
4:52 AM 34.0 °F 28.8 °F 30.0 °F 85% 30.07 in 1.5 mi NW 5.8 mph - 0.00 in Snow Light Snow
5:25 AM 33.8 °F 28.6 °F 30.2 °F 87% 30.06 in 2.0 mi NW 5.8 mph - 0.01 in Snow Light Snow
5:35 AM 33.8 °F 29.6 °F 30.2 °F 87% 30.06 in 1.8 mi NW 4.6 mph - 0.01 in Snow Light Snow
5:52 AM 34.0 °F 28.0 °F 30.0 °F 85% 30.08 in 2.0 mi NW 6.9 mph - 0.01 in Snow Light Snow
6:19 AM 33.8 °F 29.6 °F 30.2 °F 87% 30.07 in 1.8 mi WNW 4.6 mph - 0.00 in Snow Light Snow
6:52 AM 34.0 °F 29.8 °F 30.0 °F 85% 30.08 in 1.2 mi NW 4.6 mph - 0.01 in Snow Light Snow
7:52 AM 34.0 °F 27.2 °F 28.9 °F 82% 30.10 in 2.0 mi NW 8.1 mph - 0.00 in Snow Light Snow
8:30 AM 33.8 °F 26.4 °F 30.2 °F 87% 30.10 in 3.0 mi NW 9.2 mph - 0.00 in   Overcast
8:45 AM 33.8 °F 26.4 °F 28.4 °F 81% 30.10 in 2.0 mi NW 9.2 mph - 0.00 in Snow Light Snow
8:52 AM 34.0 °F 28.0 °F 28.9 °F 82% 30.11 in 1.8 mi NW 6.9 mph - 0.00 in Snow Light Snow
9:52 AM 35.1 °F 28.6 °F 30.0 °F 82% 30.12 in 1.0 mi NW 8.1 mph - 0.01 in Snow Light Snow
10:18 AM 35.6 °F 28.6 °F 30.2 °F 81% 30.11 in 3.0 mi NW 9.2 mph - 0.00 in Snow Light Snow
10:32 AM 35.6 °F 28.6 °F 30.2 °F 81% 30.11 in 1.8 mi NW 9.2 mph - 0.00 in Snow Light Snow
10:49 AM 35.6 °F 29.2 °F 30.2 °F 81% 30.11 in 1.5 mi NW 8.1 mph - 0.00 in Snow Light Snow
11:01 AM 35.6 °F 29.2 °F 30.2 °F 81% 30.11 in 2.5 mi NW 8.1 mph - 0.00 in Snow Light Snow
11:21 AM 35.6 °F 28.0 °F 30.2 °F 81% 30.11 in 1.5 mi NW 10.4 mph - 0.00 in Snow Light Snow
11:32 AM 35.6 °F 28.6 °F 30.2 °F 81% 30.11 in 1.2 mi NW 9.2 mph - 0.00 in Snow Light Snow
11:45 AM 37.4 °F 30.8 °F 30.2 °F 75% 30.11 in 2.0 mi NW 9.2 mph - 0.00 in Snow Light Snow
11:52 AM 37.0 °F 30.4 °F 30.9 °F 79% 30.12 in 2.0 mi NW 9.2 mph - 0.00 in Snow Light Snow
12:06 PM 35.6 °F 29.2 °F 30.2 °F 81% 30.10 in 1.8 mi NW 8.1 mph - 0.00 in Snow Light Snow
12:09 PM 37.4 °F 29.8 °F 30.2 °F 75% 30.10 in 2.0 mi NW 11.5 mph - 0.00 in Snow Light Snow
12:38 PM 37.4 °F 31.4 °F 30.2 °F 75% 30.10 in 2.5 mi WNW 8.1 mph - 0.00 in Snow Light Snow
12:41 PM 37.4 °F 31.4 °F 30.2 °F 75% 30.10 in 3.0 mi NW 8.1 mph - 0.00 in Snow Light Snow
12:52 PM 37.0 °F 31.0 °F 30.9 °F 79% 30.11 in 4.0 mi WNW 8.1 mph - 0.00 in Snow Light Snow
1:07 PM 37.4 °F 32.1 °F 30.2 °F 75% 30.09 in 7.0 mi Variable 6.9 mph - 0.00 in Snow Light Snow
1:52 PM 37.0 °F 31.0 °F 30.9 °F 79% 30.09 in 3.0 mi WNW 8.1 mph - 0.00 in Snow Light Snow
2:18 PM 37.4 °F 29.8 °F 30.2 °F 75% 30.08 in 2.5 mi NW 11.5 mph - 0.01 in Snow Light Snow
2:22 PM 37.4 °F 30.3 °F 30.2 °F 75% 30.08 in 3.0 mi NW 10.4 mph - 0.01 in Snow Light Snow
2:34 PM 37.4 °F 31.4 °F 30.2 °F 75% 30.08 in 4.0 mi NW 8.1 mph - 0.01 in Snow Light Snow
2:48 PM 37.4 °F 30.8 °F 30.2 °F 75% 30.08 in 2.5 mi NW 9.2 mph - 0.01 in Snow Light Snow
2:52 PM 37.0 °F 30.4 °F 30.9 °F 79% 30.09 in 2.5 mi NW 9.2 mph - 0.01 in Snow Light Snow
2:59 PM 37.4 °F 30.3 °F 30.2 °F 75% 30.08 in 3.0 mi WNW 10.4 mph - 0.00 in Snow Light Snow
3:09 PM 37.4 °F 30.8 °F 30.2 °F 75% 30.08 in 2.0 mi NW 9.2 mph - 0.00 in Snow Light Snow
3:23 PM 37.4 °F 30.8 °F 30.2 °F 75% 30.08 in 4.0 mi WNW 9.2 mph - 0.00 in Snow Light Snow
3:30 PM 37.4 °F 30.8 °F 30.2 °F 75% 30.08 in 4.0 mi WNW 9.2 mph - 0.00 in Snow Light Snow
3:52 PM 37.0 °F 29.8 °F 30.9 °F 79% 30.10 in 7.0 mi WNW 10.4 mph - 0.00 in Snow Light Snow
4:06 PM 37.4 °F 30.8 °F 30.2 °F 75% 30.09 in 2.5 mi NW 9.2 mph - 0.00 in Snow Light Snow
4:15 PM 35.6 °F 28.6 °F 30.2 °F 81% 30.09 in 1.5 mi NW 9.2 mph 17.3 mph 0.00 in Snow Light Snow
4:19 PM 35.6 °F 28.0 °F 30.2 °F 81% 30.09 in 2.5 mi NW 10.4 mph - 0.00 in Snow Light Snow
4:22 PM 35.6 °F 28.6 °F 30.2 °F 81% 30.09 in 4.0 mi NW 9.2 mph - 0.01 in Snow Light Snow
4:24 PM 35.6 °F 28.0 °F 30.2 °F 81% 30.10 in 2.0 mi NNW 10.4 mph - 0.01 in Snow Light Snow
4:31 PM 35.6 °F 28.6 °F 30.2 °F 81% 30.10 in 2.0 mi NNW 9.2 mph - 0.01 in Snow Light Snow
4:38 PM 35.6 °F 28.0 °F 30.2 °F 81% 30.10 in 3.0 mi NNW 10.4 mph - 0.01 in Snow Light Snow
4:52 PM 36.0 °F 29.6 °F 30.9 °F 82% 30.11 in 6.0 mi NNW 8.1 mph - 0.01 in   Haze
5:13 PM 35.6 °F 26.6 °F 30.2 °F 81% 30.11 in 2.5 mi NNW 13.8 mph 18.4 mph 0.00 in Snow Light Snow
5:24 PM 35.6 °F 28.0 °F 30.2 °F 81% 30.11 in 3.0 mi NNW 10.4 mph - 0.00 in Snow Light Snow
5:33 PM 35.6 °F 29.9 °F 30.2 °F 81% 30.11 in 2.5 mi NNW 6.9 mph - 0.00 in Snow Light Snow
5:49 PM 35.6 °F 26.2 °F 28.4 °F 75% 30.12 in 1.8 mi NNW 15.0 mph 19.6 mph 0.01 in Snow Light Snow
5:58 PM 33.8 °F 25.3 °F 28.4 °F 81% 30.12 in 2.0 mi NNW 11.5 mph - 0.00 in Snow Light Snow
6:05 PM 33.8 °F 25.8 °F 28.4 °F 81% 30.12 in 5.0 mi NNW 10.4 mph - 0.00 in Snow Light Snow
6:21 PM 33.8 °F 25.3 °F 28.4 °F 81% 30.13 in 7.0 mi NNW 11.5 mph - 0.00 in   Overcast
6:52 PM 34.0 °F 25.5 °F 28.9 °F 82% 30.14 in 6.0 mi NW 11.5 mph - 0.00 in   Haze
7:42 PM 33.8 °F 25.8 °F 28.4 °F 81% 30.14 in 7.0 mi NNW 10.4 mph - 0.00 in   Overcast
7:52 PM 34.0 °F 25.5 °F 28.0 °F 79% 30.16 in 6.0 mi NNW 11.5 mph - 0.00 in   Haze
8:11 PM 33.8 °F 26.4 °F 28.4 °F 81% 30.15 in 4.0 mi NNW 9.2 mph - 0.00 in Snow Light Snow
9:40 PM 33.8 °F 26.4 °F 26.6 °F 75% 30.15 in 8.0 mi NNW 9.2 mph - 0.00 in   Overcast
9:47 PM 33.8 °F 25.3 °F 26.6 °F 75% 30.15 in 7.0 mi NW 11.5 mph - 0.00 in   Overcast
9:52 PM 34.0 °F 25.5 °F 27.0 °F 75% 30.17 in 6.0 mi NNW 11.5 mph - 0.00 in   Haze
10:52 PM 33.1 °F 24.9 °F 27.0 °F 78% 30.16 in 4.0 mi NNW 10.4 mph - 0.00 in Snow Light Snow
10:55 PM 33.8 °F 25.3 °F 26.6 °F 75% 30.15 in 3.0 mi NNW 11.5 mph - 0.00 in Snow Light Snow
11:52 PM 33.1 °F 26.1 °F 27.0 °F 78% 30.16 in 10.0 mi NNW 8.1 mph - 0.00 in   Overcast